Regional Weather Roundup
Issued by NWS

Home | Current Version | Previous Version | Graphics & Text | Print | Product List | Glossary On
Versions: 1 2 3 4 5 6 7 8 9 10 11 12 13 14 15 16 17 18 19 20 21 22 23 24 25 26 27 28
000
ASUS45 KSLC 012210
RWRUT

UTAH REGIONAL WEATHER ROUNDUP
NATIONAL WEATHER SERVICE SALT LAKE CITY UT
300 PM MST THU DEC 01 2016

UTZ001>011-023>025-012300-

NORTHERN UTAH

CITY           SKY/WX    TMP DP  RH WIND       PRES   REMARKS
BRIGHAM CITY     N/A     36  24  62 CALM      30.06S
HILL AFB       PTSUNNY   31  24  75 W5        30.04S WCI  26
LOGAN          LGT SNOW  31  27  85 SE6       30.05R FOG     WCI  25
OGDEN          MOSUNNY   33  26  75 W5        30.05S WCI  29
SALT LAKE CITY PTSUNNY   36  29  75 N5        30.06S WCI  32
TOOELE VALLEY  CLOUDY    36  27  69 N5        30.06S WCI  32
WENDOVER       MOSUNNY   39  14  35 N10       30.07S WCI  32
HEBER CITY     FLURRIES  30  23  74 N5        29.99S WCI  25
WEST JORDAN    CLOUDY    33  32  96 CALM      30.06R

$$

UTZ011>015-024>027-012300-

CENTRAL/NORTHEAST UTAH

CITY           SKY/WX    TMP DP  RH WIND       PRES   REMARKS
PROVO AIRPORT  CLOUDY    33  25  72 CALM      30.07S
MOAB/CANYONLAN CLOUDY    42  15  33 CALM      29.97F
DELTA          CLOUDY    36  27  69 CALM      30.04S
PRICE          PTSUNNY   34  13  41 VRB3      29.95F
RICHFIELD      CLOUDY    37  21  52 N10       29.99S WCI  30
ROOSEVELT      SUNNY     36  18  48 CALM      30.00F
VERNAL         CLOUDY    32  20  61 CALM      29.99S

$$

UTZ013>016-019>022-027-012300-

SOUTHERN UTAH

CITY           SKY/WX    TMP DP  RH WIND       PRES   REMARKS
BRYCE CANYON   SUNNY     33  13  43 NW7       29.92F WCI  27
CEDAR CITY     SUNNY     39  18  42 N15       29.94F WCI  31
MILFORD        MOSUNNY   38  21  50 NE16      30.00S WCI  29
ST GEORGE      PTCLDY    48  18  29 CALM      29.99S
HANKSVILLE     SUNNY     43  14  31 CALM      29.99F
KANAB          MOSUNNY   46  16  29 SW8       29.95F
BLANDING       CLOUDY    38  14  37 SE6       30.01F WCI  33

$$

REGIONAL REPORTS     COLORADO/ARIZONA

CITY           SKY/WX    TMP DP  RH WIND       PRES   REMARKS
CRAIG, CO      LGT SNOW  28  21  75 CALM      29.98R
GRAND JUNCTION CLOUDY    37  18  46 NW8       29.99S WCI  31
RIFLE, CO      CLOUDY    34  15  46 SW9       29.98S WCI  27
MONTROSE, CO   CLOUDY    35  13  40 VRB3      29.97F
CORTEZ, CO     SUNNY     37  12  35 CALM      29.95F
COLORADO CITY    N/A     46  19  34 W5        29.97S
PAGE, AZ       SUNNY     45  12  26 NE6       29.94F
GRAND CANYON   MOSUNNY   39  21  48 W6        29.94S WCI  35
KINGMAN, AZ    SUNNY     50  13  22 N8        29.93F
FLAGSTAFF, AZ  MOSUNNY   39  16  39 CALM      29.92F

$$

REGIONAL REPORTS    NEVADA/IDAHO/WYOMING

CITY           SKY/WX    TMP DP  RH WIND       PRES   REMARKS
LAS VEGAS, NV  PTSUNNY   56  17  21 NE6       29.95F
ELY, NY        CLOUDY    29  20  69 NW16      30.00S WCI  17
ELKO, NV       CLOUDY    34  13  41 VRB5      30.08S WCI  30
POCATELLO, ID  CLOUDY    30  23  75 SW12      30.07F WCI  20
BURLEY, ID     CLOUDY    35  22  58 W20G25    30.06S WCI  24
FORT BRIDGER,    N/A     30  16  55 W15G21    29.97F WCI  19
EVANSTON, WY   MOSUNNY   24  12  60 W14       29.95F WCI  12
ROCK SPRINGS,  CLOUDY    26  17  68 W14       29.93S WCI  14

$$




USA.gov is the U.S. government's official web portal to all federal, state and local government web resources and services.